N805AB MMAA-MMMX

Flight info

Callsign N805AB
Flight time 0h 32m
Altitude 15500
Route VFR DIRECT
Aircraft C700/M-VGD/C

Departure

Time 2026-05-06 01:19
Airport General Juan N. Álvarez International Airport (MMAA)

Arrival

Time 2026-05-06 01:52
Airport Mexico City Benito Juárez International Airport (MMMX)
Time Latitude Longitude Altitude Speed Heading
2026-05-06 01:07 16.76100 -99.75012 -4 ft 0 kts 246°
2026-05-06 01:12 16.76090 -99.75027 14 ft 6 kts 222°
2026-05-06 01:12 16.76043 -99.75035 14 ft 2 kts 159°
2026-05-06 01:13 16.76038 -99.75005 14 ft 8 kts 97°
2026-05-06 01:13 16.76027 -99.74902 14 ft 19 kts 97°
2026-05-06 01:13 16.76018 -99.74851 14 ft 0 kts 113°
2026-05-06 01:14 16.75937 -99.74800 12 ft 22 kts 156°
2026-05-06 01:14 16.75762 -99.74722 14 ft 32 kts 152°
2026-05-06 01:14 16.75640 -99.74523 15 ft 35 kts 109°
2026-05-06 01:15 16.75569 -99.74297 16 ft 28 kts 109°
2026-05-06 01:15 16.75508 -99.74100 16 ft 22 kts 108°
2026-05-06 01:15 16.75461 -99.73955 16 ft 25 kts 108°
2026-05-06 01:15 16.75398 -99.73755 15 ft 32 kts 108°
2026-05-06 01:16 16.75324 -99.73529 17 ft 34 kts 107°
2026-05-06 01:16 16.75272 -99.73363 15 ft 10 kts 116°
2026-05-06 01:16 16.75206 -99.73329 17 ft 12 kts 184°
2026-05-06 01:16 16.75189 -99.73333 15 ft 0 kts 199°
2026-05-06 01:18 16.75171 -99.73340 16 ft 10 kts 200°
2026-05-06 01:18 16.75088 -99.73408 15 ft 10 kts 269°
2026-05-06 01:18 16.75141 -99.73585 13 ft 58 kts 289°
2026-05-06 01:18 16.75369 -99.74303 16 ft 152 kts 288°
2026-05-06 01:19 16.75783 -99.75581 322 ft 215 kts 287°
2026-05-06 01:19 16.76291 -99.77196 1106 ft 247 kts 285°
2026-05-06 01:19 16.76788 -99.78779 2569 ft 221 kts 289°
2026-05-06 01:19 16.77678 -99.80104 3625 ft 231 kts 319°
2026-05-06 01:20 16.79192 -99.80846 4426 ft 251 kts 345°
2026-05-06 01:20 16.80999 -99.80953 5231 ft 277 kts
2026-05-06 01:20 16.82989 -99.80527 6183 ft 309 kts 17°
2026-05-06 01:20 16.85098 -99.79707 7371 ft 335 kts 21°
2026-05-06 01:21 16.87388 -99.78773 8435 ft 366 kts 22°
2026-05-06 01:21 16.89731 -99.77803 10407 ft 357 kts 23°
2026-05-06 01:21 16.91971 -99.76895 11867 ft 346 kts 22°
2026-05-06 01:21 16.94280 -99.75992 12222 ft 367 kts 22°
2026-05-06 01:22 16.96723 -99.74996 12693 ft 378 kts 23°
2026-05-06 01:22 16.99135 -99.73995 13940 ft 368 kts 24°
2026-05-06 01:22 17.01516 -99.72997 14811 ft 372 kts 24°
2026-05-06 01:22 17.03937 -99.71964 15360 ft 384 kts 25°
2026-05-06 01:23 17.06467 -99.70926 15839 ft 397 kts 21°
2026-05-06 01:23 17.09215 -99.70145 15845 ft 422 kts 15°
2026-05-06 01:23 17.12011 -99.69508 15722 ft 399 kts 14°
2026-05-06 01:23 17.14671 -99.68947 15583 ft 384 kts 13°
2026-05-06 01:24 17.17299 -99.68401 15452 ft 386 kts 13°
2026-05-06 01:24 17.19942 -99.67856 15452 ft 389 kts 13°
2026-05-06 01:24 17.22584 -99.67310 15461 ft 403 kts 13°
2026-05-06 01:24 17.25354 -99.66732 15462 ft 403 kts 13°
2026-05-06 01:25 17.28069 -99.66169 15464 ft 393 kts 13°
2026-05-06 01:25 17.30737 -99.65614 15463 ft 390 kts 13°
2026-05-06 01:25 17.33400 -99.65059 15466 ft 389 kts 13°
2026-05-06 01:25 17.36073 -99.64498 15461 ft 397 kts 13°
2026-05-06 01:26 17.38814 -99.63918 15469 ft 405 kts 13°
2026-05-06 01:26 17.41575 -99.63331 15468 ft 406 kts 13°
2026-05-06 01:26 17.44348 -99.62737 15456 ft 408 kts 13°
2026-05-06 01:26 17.47128 -99.62142 15465 ft 409 kts 13°
2026-05-06 01:27 17.49917 -99.61547 15457 ft 409 kts 13°
2026-05-06 01:27 17.52670 -99.60960 15459 ft 410 kts 13°
2026-05-06 01:27 17.55460 -99.60318 15450 ft 410 kts 15°
2026-05-06 01:27 17.58231 -99.59606 15445 ft 410 kts 15°
2026-05-06 01:28 17.60999 -99.58871 15440 ft 410 kts 16°
2026-05-06 01:28 17.63763 -99.58126 15432 ft 411 kts 16°
2026-05-06 01:28 17.66529 -99.57381 15423 ft 410 kts 16°
2026-05-06 01:28 17.69292 -99.56633 15410 ft 410 kts 16°
2026-05-06 01:29 17.72057 -99.55885 15401 ft 411 kts 16°
2026-05-06 01:29 17.74825 -99.55142 15392 ft 410 kts 16°
2026-05-06 01:29 17.77590 -99.54405 15376 ft 410 kts 16°
2026-05-06 01:29 17.80349 -99.53665 15376 ft 409 kts 16°
2026-05-06 01:30 17.83070 -99.52933 15368 ft 409 kts 16°
2026-05-06 01:30 17.85867 -99.52181 15364 ft 410 kts 16°
2026-05-06 01:30 17.88594 -99.51448 15346 ft 410 kts 16°
2026-05-06 01:30 17.91362 -99.50709 15329 ft 410 kts 16°
2026-05-06 01:31 17.94130 -99.49975 15323 ft 410 kts 16°
2026-05-06 01:31 17.96899 -99.49242 15320 ft 410 kts 16°
2026-05-06 01:31 17.99668 -99.48514 15309 ft 410 kts 16°
2026-05-06 01:31 18.02431 -99.47789 15304 ft 409 kts 16°
2026-05-06 01:32 18.05181 -99.47065 15294 ft 407 kts 16°
2026-05-06 01:32 18.07924 -99.46343 15286 ft 406 kts 16°
2026-05-06 01:32 18.10658 -99.45630 15290 ft 405 kts 16°
2026-05-06 01:32 18.13387 -99.44916 15282 ft 404 kts 16°
2026-05-06 01:33 18.16112 -99.44206 15273 ft 403 kts 16°
2026-05-06 01:33 18.18793 -99.43510 15268 ft 402 kts 16°
2026-05-06 01:33 18.21507 -99.42807 15267 ft 401 kts 16°
2026-05-06 01:33 18.24217 -99.42107 15260 ft 400 kts 16°
2026-05-06 01:34 18.26916 -99.41410 15267 ft 399 kts 16°
2026-05-06 01:34 18.29616 -99.40717 15264 ft 399 kts 16°
2026-05-06 01:34 18.32314 -99.40027 15265 ft 399 kts 16°
2026-05-06 01:34 18.35015 -99.39336 15170 ft 401 kts 16°
2026-05-06 01:35 18.37734 -99.38643 15053 ft 403 kts 16°
2026-05-06 01:35 18.40465 -99.37943 14958 ft 404 kts 16°
2026-05-06 01:35 18.43193 -99.37247 14953 ft 403 kts 16°
2026-05-06 01:35 18.45912 -99.36554 14952 ft 401 kts 16°
2026-05-06 01:36 18.48595 -99.35871 14953 ft 389 kts 16°
2026-05-06 01:36 18.51138 -99.35228 14974 ft 374 kts 16°
2026-05-06 01:36 18.53639 -99.34599 14813 ft 365 kts 16°
2026-05-06 01:36 18.56096 -99.33989 14601 ft 360 kts 16°
2026-05-06 01:37 18.58520 -99.33387 14397 ft 356 kts 16°
2026-05-06 01:37 18.60926 -99.32793 14193 ft 353 kts 16°
2026-05-06 01:37 18.63314 -99.32201 13831 ft 355 kts 16°
2026-05-06 01:37 18.65741 -99.31590 13277 ft 361 kts 16°
2026-05-06 01:38 18.68198 -99.30958 12717 ft 366 kts 15°
2026-05-06 01:38 18.70683 -99.30301 12169 ft 370 kts 15°
2026-05-06 01:38 18.73163 -99.29634 12054 ft 363 kts 16°
2026-05-06 01:38 18.75677 -99.28950 12299 ft 391 kts 16°
2026-05-06 01:39 18.78362 -99.28213 12556 ft 398 kts 16°
2026-05-06 01:39 18.81014 -99.27488 12796 ft 390 kts 16°
2026-05-06 01:39 18.83657 -99.26760 13052 ft 396 kts 16°
2026-05-06 01:39 18.86331 -99.26019 13706 ft 389 kts 16°
2026-05-06 01:40 18.88793 -99.25341 14482 ft 353 kts 16°
2026-05-06 01:40 18.91082 -99.24719 15263 ft 337 kts 16°
2026-05-06 01:40 18.93414 -99.24085 15987 ft 357 kts 16°
2026-05-06 01:40 18.95938 -99.23398 16176 ft 394 kts 16°
2026-05-06 01:41 18.98649 -99.22656 16171 ft 407 kts 16°
2026-05-06 01:41 19.01402 -99.21903 16163 ft 411 kts 16°
2026-05-06 01:41 19.04061 -99.20834 16254 ft 410 kts 33°
2026-05-06 01:41 19.06096 -99.18715 16227 ft 418 kts 59°
2026-05-06 01:42 19.06981 -99.15893 16202 ft 395 kts 83°
2026-05-06 01:42 19.06720 -99.13129 16111 ft 377 kts 108°
2026-05-06 01:42 19.05388 -99.10828 16022 ft 367 kts 134°
2026-05-06 01:42 19.03201 -99.09530 15962 ft 363 kts 167°
2026-05-06 01:43 19.00758 -99.09836 16020 ft 358 kts 204°
2026-05-06 01:43 18.98976 -99.11616 15972 ft 359 kts 240°
2026-05-06 01:43 18.98484 -99.14158 15896 ft 357 kts 273°
2026-05-06 01:43 18.99190 -99.16643 15820 ft 354 kts 299°
2026-05-06 01:44 19.00779 -99.18568 15819 ft 346 kts 325°
2026-05-06 01:44 19.02978 -99.19498 15736 ft 345 kts 353°
2026-05-06 01:44 19.05387 -99.19335 15643 ft 353 kts 15°
2026-05-06 01:44 19.07785 -99.18559 15302 ft 365 kts 19°
2026-05-06 01:45 19.10205 -99.17707 14969 ft 369 kts 20°
2026-05-06 01:45 19.12605 -99.16817 14649 ft 372 kts 20°
2026-05-06 01:45 19.15062 -99.15886 14257 ft 379 kts 20°
2026-05-06 01:45 19.17550 -99.14923 13885 ft 382 kts 20°
2026-05-06 01:46 19.20096 -99.14042 13411 ft 383 kts 16°
2026-05-06 01:46 19.22599 -99.13330 13150 ft 361 kts 15°
2026-05-06 01:46 19.24945 -99.12676 12897 ft 340 kts 15°
2026-05-06 01:46 19.27209 -99.12058 12247 ft 334 kts 15°
2026-05-06 01:47 19.29466 -99.11466 11522 ft 333 kts 14°
2026-05-06 01:47 19.31707 -99.10917 10824 ft 329 kts 13°
2026-05-06 01:47 19.33977 -99.10473 9999 ft 333 kts 11°
2026-05-06 01:47 19.36205 -99.10113 9592 ft 322 kts
2026-05-06 01:48 19.38389 -99.10099 9386 ft 308 kts 348°
2026-05-06 01:48 19.40309 -99.10913 9321 ft 289 kts 332°
2026-05-06 01:48 19.41865 -99.12096 9335 ft 268 kts 306°
2026-05-06 01:48 19.42319 -99.13913 9269 ft 256 kts 265°
2026-05-06 01:49 19.41716 -99.15646 9182 ft 245 kts 232°
2026-05-06 01:49 19.40391 -99.16626 9205 ft 228 kts 195°
2026-05-06 01:49 19.38944 -99.16310 9214 ft 211 kts 140°
2026-05-06 01:49 19.38289 -99.14981 9038 ft 214 kts 90°
2026-05-06 01:50 19.38797 -99.13548 8611 ft 215 kts 47°
2026-05-06 01:50 19.39913 -99.12595 8126 ft 197 kts 38°
2026-05-06 01:50 19.40913 -99.11717 7831 ft 175 kts 56°
2026-05-06 01:50 19.41491 -99.10699 7718 ft 151 kts 61°
2026-05-06 01:51 19.41934 -99.09939 7540 ft 146 kts 65°
2026-05-06 01:51 19.42482 -99.08968 7435 ft 156 kts 64°
2026-05-06 01:51 19.43022 -99.08009 7306 ft 146 kts 63°
2026-05-06 01:51 19.43497 -99.07159 7296 ft 114 kts 59°
2026-05-06 01:52 19.43762 -99.06691 7298 ft 35 kts 59°
2026-05-06 01:52 19.43738 -99.06612 7297 ft 0 kts 181°
2026-05-06 01:53 19.43733 -99.06612 7297 ft 3 kts 181°
2026-05-06 01:54 19.43668 -99.06631 7297 ft 17 kts 200°
2026-05-06 01:54 19.43524 -99.06711 7297 ft 29 kts 207°
2026-05-06 01:54 19.43357 -99.06774 7297 ft 19 kts 161°
2026-05-06 01:54 19.43275 -99.06693 7297 ft 12 kts 116°
2026-05-06 01:55 19.43268 -99.06655 7297 ft 2 kts 44°
2026-05-06 01:55 19.43272 -99.06651 7297 ft 0 kts 44°